• In Belarus
  • List of Countries
  • For 7 days
  • Water Temperature
  • Satellite Maps
  • Weather Map
  • Weather Widgets
  • user-avatar
    Login

    Hourly Weather Saint-Rémi

    Today, 23 November, Thursday

    Time Temperature Precipitation Wind Pressure Humidity
    00:00 -7°C° 0 mm 4 mps 759 mmHg 78%
    01:00 -6°C° 0 mm 3 mps 759 mmHg 78%
    02:00 -6°C° 0 mm 3 mps 759 mmHg 78%
    03:00 -7°C° 0 mm 3 mps 759 mmHg 79%
    04:00 -7°C° 0 mm 3 mps 759 mmHg 79%
    05:00 -7°C° 0 mm 3 mps 759 mmHg 79%
    06:00 -7°C° 0 mm 3 mps 759 mmHg 79%
    07:00 -7°C° 0 mm 3 mps 759 mmHg 79%
    08:00 -6°C° 0 mm 3 mps 759 mmHg 75%
    09:00 -5°C° 0 mm 3 mps 758 mmHg 71%
    10:00 -5°C° 0 mm 3 mps 758 mmHg 68%
    11:00 -4°C° 0 mm 3 mps 757 mmHg 64%
    12:00 -3°C° 0 mm 4 mps 757 mmHg 61%
    13:00 -2°C° 0 mm 4 mps 756 mmHg 58%
    14:00 -1°C° 0 mm 3 mps 755 mmHg 62%
    15:00 -1°C° 0 mm 3 mps 755 mmHg 65%
    16:00 -2°C° 0 mm 2 mps 755 mmHg 68%
    17:00 -2°C° 0 mm 3 mps 755 mmHg 70%
    18:00 -1°C° 0 mm 3 mps 754 mmHg 73%
    19:00 -1°C° 0 mm 3 mps 754 mmHg 76%
    20:00 -1°C° 0 mm 3 mps 754 mmHg 75%
    21:00 -2°C° 0 mm 4 mps 754 mmHg 75%
    22:00 -1°C° 0 mm 4 mps 754 mmHg 74%
    23:00 -1°C° 0 mm 4 mps 754 mmHg 75%

    Tomorrow, 24 November, Friday

    Time Temperature Precipitation Wind Pressure Humidity
    00:00 -1°C° 0 mm 4 mps 754 mmHg 77%
    01:00 -1°C° 0 mm 4 mps 754 mmHg 78%
    02:00 -1°C° 0 mm 4 mps 754 mmHg 79%
    03:00 -2°C° 0 mm 4 mps 754 mmHg 81%
    04:00 -1°C° 0 mm 3 mps 754 mmHg 83%
    05:00 -1°C° 0 mm 3 mps 754 mmHg 84%
    06:00 -1°C° 0 mm 3 mps 754 mmHg 85%
    07:00 -1°C° 0 mm 3 mps 755 mmHg 86%
    08:00 0°C° 0 mm 3 mps 755 mmHg 82%
    09:00 +1°C° 0 mm 3 mps 755 mmHg 78%
    10:00 +1°C° 0 mm 4 mps 754 mmHg 75%
    11:00 +3°C° 0 mm 4 mps 754 mmHg 72%
    12:00 +4°C° 0 mm 4 mps 753 mmHg 70%
    13:00 +5°C° 0 mm 5 mps 752 mmHg 67%
    14:00 +4°C° 0 mm 4 mps 752 mmHg 71%
    15:00 +4°C° 0 mm 4 mps 751 mmHg 74%
    16:00 +3°C° 0 mm 3 mps 751 mmHg 77%
    17:00 +3°C° 0 mm 4 mps 751 mmHg 77%
    18:00 +1°C° 0 mm 4 mps 751 mmHg 78%
    19:00 +1°C° 0 mm 4 mps 750 mmHg 78%
    20:00 +1°C° 0 mm 4 mps 750 mmHg 77%
    21:00 +1°C° 0 mm 4 mps 750 mmHg 76%
    22:00 +1°C° 0 mm 4 mps 749 mmHg 76%
    23:00 +1°C° 0 mm 4 mps 749 mmHg 75%

    Day after tomorrow, 25 November, Saturday

    Time Temperature Precipitation Wind Pressure Humidity
    00:00 +1°C° 0 mm 4 mps 749 mmHg 74%
    01:00 +1°C° 0 mm 4 mps 748 mmHg 73%
    02:00 +1°C° 0 mm 4 mps 748 mmHg 73%
    03:00 +1°C° 0 mm 4 mps 747 mmHg 72%
    04:00 +1°C° 0 mm 4 mps 747 mmHg 72%
    05:00 +1°C° 0.1 mm 4 mps 746 mmHg 72%
    06:00 +1°C° 0.1 mm 4 mps 746 mmHg 73%
    07:00 +1°C° 0.1 mm 4 mps 746 mmHg 73%
    08:00 +3°C° 1.1 mm 4 mps 746 mmHg 76%
    09:00 +3°C° 1.1 mm 4 mps 746 mmHg 79%
    10:00 +3°C° 1.1 mm 4 mps 746 mmHg 82%
    11:00 +3°C° 0.3 mm 4 mps 746 mmHg 83%
    12:00 +4°C° 0.3 mm 4 mps 746 mmHg 84%
    13:00 +4°C° 0.3 mm 4 mps 746 mmHg 86%
    14:00 +4°C° 0.1 mm 3 mps 746 mmHg 87%
    15:00 +4°C° 0.1 mm 3 mps 746 mmHg 89%
    16:00 +4°C° 0.1 mm 3 mps 746 mmHg 90%
    17:00 +4°C° 0.1 mm 3 mps 746 mmHg 91%
    18:00 +4°C° 0.1 mm 2 mps 746 mmHg 92%
    19:00 +4°C° 0.1 mm 2 mps 747 mmHg 93%
    20:00 +4°C° 0.1 mm 2 mps 747 mmHg 94%
    21:00 +4°C° 0.1 mm 2 mps 747 mmHg 95%
    22:00 +4°C° 0.1 mm 2 mps 747 mmHg 95%
    23:00 +4°C° 0.2 mm 2 mps 748 mmHg 94%

    26 November, Sunday

    Time Temperature Precipitation Wind Pressure Humidity
    00:00 +2°C° 0.2 mm 3 mps 748 mmHg 93%
    01:00 +2°C° 0.2 mm 3 mps 748 mmHg 91%
    02:00 0°C° 0.1 mm 4 mps 749 mmHg 88%
    03:00 -1°C° 0.1 mm 4 mps 749 mmHg 85%
    04:00 -1°C° 0.1 mm 5 mps 750 mmHg 81%
    05:00 -2°C° 0 mm 4 mps 750 mmHg 80%
    06:00 -3°C° 0 mm 4 mps 751 mmHg 78%
    07:00 -4°C° 0 mm 3 mps 752 mmHg 77%
    08:00 -3°C° 0 mm 4 mps 752 mmHg 73%
    09:00 -3°C° 0 mm 4 mps 753 mmHg 69%
    10:00 -4°C° 0 mm 5 mps 753 mmHg 65%
    11:00 -4°C° 0 mm 5 mps 753 mmHg 63%
    12:00 -2°C° 0 mm 5 mps 753 mmHg 60%
    13:00 -2°C° 0 mm 5 mps 753 mmHg 58%
    14:00 -4°C° 0 mm 5 mps 754 mmHg 59%
    15:00 -4°C° 0 mm 5 mps 754 mmHg 61%
    16:00 -5°C° 0 mm 5 mps 754 mmHg 63%
    17:00 -4°C° 0 mm 4 mps 755 mmHg 64%
    18:00 -4°C° 0 mm 4 mps 755 mmHg 66%
    19:00 -5°C° 0 mm 4 mps 756 mmHg 67%
    20:00 -5°C° 0 mm 4 mps 756 mmHg 67%
    21:00 -5°C° 0 mm 4 mps 756 mmHg 67%
    22:00 -5°C° 0 mm 4 mps 756 mmHg 67%
    23:00 -4°C° 0 mm 4 mps 755 mmHg 67%

    27 November, Monday

    Time Temperature Precipitation Wind Pressure Humidity
    00:00 -4°C° 0 mm 4 mps 755 mmHg 66%
    01:00 -4°C° 0 mm 4 mps 754 mmHg 66%
    02:00 -3°C° 0.1 mm 4 mps 754 mmHg 70%
    03:00 -3°C° 0.1 mm 4 mps 754 mmHg 75%
    04:00 -3°C° 0.1 mm 4 mps 754 mmHg 79%
    05:00 -3°C° 0 mm 4 mps 754 mmHg 80%
    06:00 -2°C° 0 mm 4 mps 755 mmHg 82%
    07:00 -1°C° 0 mm 3 mps 755 mmHg 84%
    08:00 -1°C° 0 mm 4 mps 755 mmHg 80%
    09:00 -1°C° 0 mm 4 mps 755 mmHg 76%
    10:00 0°C° 0 mm 4 mps 756 mmHg 73%
    11:00 +1°C° 0 mm 4 mps 756 mmHg 70%
    12:00 +1°C° 0 mm 4 mps 755 mmHg 68%
    13:00 +3°C° 0 mm 4 mps 755 mmHg 66%
    14:00 +2°C° 0 mm 3 mps 755 mmHg 71%
    15:00 +3°C° 0 mm 2 mps 755 mmHg 77%
    16:00 +3°C° 0 mm 1 mps 755 mmHg 82%
    17:00 +2°C° 0 mm 2 mps 756 mmHg 84%
    18:00 +2°C° 0 mm 2 mps 756 mmHg 86%
    19:00 +1°C° 0 mm 2 mps 756 mmHg 88%
    20:00 +1°C° 0 mm 2 mps 756 mmHg 88%
    21:00 +1°C° 0 mm 2 mps 755 mmHg 88%
    22:00 0°C° 0 mm 3 mps 755 mmHg 88%
    23:00 +1°C° 0 mm 3 mps 755 mmHg 85%

    28 November, Tuesday

    Time Temperature Precipitation Wind Pressure Humidity
    00:00 +1°C° 0 mm 3 mps 754 mmHg 83%
    01:00 +2°C° 0 mm 3 mps 754 mmHg 80%
    02:00 +2°C° 0 mm 3 mps 754 mmHg 79%
    03:00 +2°C° 0 mm 3 mps 753 mmHg 77%
    04:00 +1°C° 0 mm 4 mps 753 mmHg 75%
    05:00 +1°C° 0 mm 4 mps 752 mmHg 74%
    06:00 +1°C° 0 mm 4 mps 752 mmHg 72%
    07:00 +1°C° 0 mm 4 mps 752 mmHg 70%
    08:00 +3°C° 0 mm 4 mps 752 mmHg 66%
    09:00 +5°C° 0 mm 4 mps 751 mmHg 62%
    10:00 +6°C° 0 mm 5 mps 751 mmHg 58%
    11:00 +7°C° 0 mm 5 mps 751 mmHg 57%
    12:00 +8°C° 0 mm 5 mps 750 mmHg 56%
    13:00 +9°C° 0 mm 5 mps 750 mmHg 55%
    14:00 +8°C° 0 mm 5 mps 750 mmHg 59%
    15:00 +8°C° 0 mm 4 mps 750 mmHg 63%
    16:00 +7°C° 0 mm 4 mps 750 mmHg 67%
    17:00 +7°C° 0 mm 4 mps 750 mmHg 69%
    18:00 +7°C° 0 mm 5 mps 750 mmHg 71%
    19:00 +7°C° 0 mm 5 mps 750 mmHg 73%
    20:00 +7°C° 0.2 mm 5 mps 750 mmHg 75%
    21:00 +7°C° 0.2 mm 6 mps 750 mmHg 78%
    22:00 +7°C° 0.2 mm 6 mps 750 mmHg 81%
    23:00 +7°C° 0.3 mm 6 mps 750 mmHg 81%
    Show more